Location: Larrial
(48.2758°N, 4.5331°W)
Time: 01:08:35
(UTC+00:00)

XW-2F - Pass Details

Date: 30 November 2021
Orbit: 495 x 515 km, 97.5° (Epoch: 16 January)

Event Time Altitude Azimuth Distance (km) Brightness Sun altitude
Rises 18:59:23 0° 220° (SW) 2,598 ? -24.6°
Reaches altitude 10° 19:03:29 10° 265° (W) 1,730 ? -25.3°
Maximum altitude 19:03:57 10° 273° (W) 1,720 ? -25.4°
Drops below altitude 10° 19:04:25 10° 280° (W) 1,733 ? -25.5°
Sets 19:08:34 0° 325° (NW) 2,636 ? -26.2°
